This demonstration page uses our WeatherBlox Daily Observations layout. Learn more.

Left ArrowRight Arrow

44.31136, -96.79839

Hourly Observations for August 16, 2022

Temp ( °F °C ) Dew Point ( °F °C ) Humidity (%) Winds ( mph kmh ) Pressure ( in mb ) Visibility ( mi km ) Precip ( " mm )
12:56 am 00:56 Clear 58 14.4 58 14.4 100 100 S 6 9 30.14 1021 7 11 0.00 0.00
1:33 am 01:33 Mostly Clear with Mist and Fog 59 15 N/A N/A S 8 13 30.08 1019 3 4 0.00 0.00
1:46 am 01:46 Partly Cloudy with Mist and Fog 59 15 N/A N/A S 7 11 30.09 1019 3 5 0.00 0.00
1:56 am 01:56 Hazy 58 14.4 N/A N/A S 6 9 30.14 1021 5 8 0.00 0.00
2:44 am 02:44 Clear with Mist and Fog 57 14 N/A N/A N 6 9 30.12 1020 2 2 0.00 0.00
2:56 am 02:56 Clear with Mist and Fog 57 13.9 N/A N/A N 6 9 30.16 1022 3 4 0.00 0.00
3:03 am 03:03 Hazy 57 14 N/A N/A N 5 7 30.12 1020 4 6 0.00 0.00
3:56 am 03:56 Clear 57 13.9 N/A N/A E 3 6 30.17 1022 7 11 0.00 0.00
4:23 am 04:23 Mostly Cloudy with Mist and Fog 55 13 N/A N/A NE 5 7 30.14 1021 3 4 0.00 0.00
4:32 am 04:32 Mostly Cloudy with Haze 55 13 N/A N/A Calm 30.14 1021 5 8 0.00 0.00
4:56 am 04:56 Cloudy with Haze 57 13.9 N/A N/A Calm 30.18 1022 5 8 0.00 0.00
5:56 am 05:56 Cloudy with Haze 57 13.9 N/A N/A Calm 30.18 1022 6 10 0.00 0.00
6:56 am 06:56 Cloudy 59 15 N/A N/A SE 5 7 30.19 1022 7 11 0.00 0.00
7:56 am 07:56 Cloudy 63 17.2 60 15.6 90 90 SE 5 7 30.20 1023 9 14 0.00 0.00
8:56 am 08:56 Cloudy 67 19.4 61 16.1 81 81 SE 6 9 30.22 1023 10 16 0.00 0.00
9:56 am 09:56 Partly Cloudy 72 22.2 59 15 64 64 SSW 5 7 30.21 1023 10 16 0.00 0.00
10:56 am 10:56 Partly Cloudy 74 23.3 60 15.6 62 62 S 7 11 30.20 1023 10 16 0.00 0.00
11:03 am 11:03 Mostly Cloudy 75 24 59 15 57 57 WSW 6 9 30.11 1019 10 16 0.00 0.00
11:21 am 11:21 Partly Cloudy 73 23 59 15 61 61 VRB 6 9 30.11 1020 10 16 0.00 0.00
11:56 am 11:56 Mostly Sunny 76 24.4 59 15 56 56 SE 8 13 30.19 1022 10 16 0.00 0.00
12:12 pm 12:12 Mostly Cloudy 75 24 59 15 57 57 S 8 13 30.10 1019 10 16 0.00 0.00
12:27 pm 12:27 Mostly Cloudy 77 25 59 15 54 54 S 8 13 30.09 1019 10 16 0.00 0.00
12:56 pm 12:56 Mostly Sunny 77 25 60 15.6 56 56 SSE 8 13 30.19 1022 10 16 0.00 0.00
1:56 pm 13:56 Partly Cloudy 80 26.7 60 15.6 51 51 VRB 7 11 30.18 1022 10 16 0.00 0.00
2:56 pm 14:56 Cloudy 79 26.1 61 16.1 54 54 S 7 11 30.18 1022 10 16 0.00 0.00
3:56 pm 15:56 Mostly Cloudy 81 27.2 60 15.6 49 49 SSW 7 11 30.16 1022 10 16 0.00 0.00
4:56 pm 16:56 Mostly Cloudy 79 26.1 62 16.7 56 56 S 9 15 30.16 1022 10 16 0.00 0.00
5:56 pm 17:56 Cloudy 82 27.8 61 16.1 49 49 S 9 15 30.16 1022 10 16 0.00 0.00
6:56 pm 18:56 Mostly Sunny 79 26.1 61 16.1 54 54 S 9 15 30.16 1021 10 16 0.00 0.00
7:56 pm 19:56 Sunny 75 23.9 63 17.2 66 66 S 6 9 30.16 1021 10 16 0.00 0.00
8:56 pm 20:56 Clear 70 21.1 61 16.1 73 73 SSE 6 9 30.16 1021 10 16 0.00 0.00
9:56 pm 21:56 Clear 68 20 62 16.7 81 81 S 5 7 30.17 1022 10 16 0.00 0.00
10:56 pm 22:56 Clear 63 17.2 62 16.7 97 97 Calm 30.18 1022 10 16 0.00 0.00
11:56 pm 23:56 Clear 63 17.2 62 16.7 97 97 Calm 30.18 1022 10 16 0.00 0.00

Powered by AerisWeather